Terminal Aerodrome Forecast
Issued by NWS St Louis, MO

Home | Current Version | Previous Version | Text Only | Print | Product List | Glossary On
Versions: 1 2 3 4 5 6 7 8 9 10 11 12 13 14 15 16 17 18 19 20 21 22 23 24 25 26 27 28 29 30 31 32 33 34 35 36 37 38 39
000
FTUS43 KLSX 311300 AAB
TAFSTL
TAF AMD
KSTL 311340Z 3114/0118 22005KT P6SM SCT009 SCT250
      TEMPO 3114/3115 BKN009
     FM311530 22008KT P6SM SCT035
     FM010000 17008KT P6SM SCT250
     FM011600 21012KT P6SM VCSH BKN035 BKN120=

USA.gov is the U.S. government's official web portal to all federal, state and local government web resources and services.